Time,TemperatureF,DewpointF,PressureIn,WindDirection,WindDirectionDegrees,WindSpeedMPH,WindSpeedGustMPH,Humidity,HourlyPrecipIn,Conditions,Clouds,dailyrainin,SoftwareType,DateUTC
2013-07-21 00:00:00,69.0,67.0,29.93,SSW,211,0.0,0.0,92,0.00,,,0.31,,2013-07-21 04:00:00,
2013-07-21 00:01:00,69.0,67.0,29.93,SSW,211,0.0,0.0,92,0.00,,,0.31,,2013-07-21 04:01:00,
2013-07-21 00:11:00,69.0,67.0,29.93,SSW,211,0.0,0.0,92,0.00,,,0.31,,2013-07-21 04:11:00,
2013-07-21 00:22:00,69.0,67.0,29.92,SSW,211,0.0,0.0,93,0.00,,,0.31,,2013-07-21 04:22:00,
2013-07-21 00:32:00,69.0,67.0,29.91,SSW,211,0.0,0.0,93,0.00,,,0.31,,2013-07-21 04:32:00,
2013-07-21 00:43:00,69.0,67.0,29.91,SSW,211,0.0,0.0,93,0.00,,,0.31,,2013-07-21 04:43:00,
2013-07-21 00:53:00,68.0,66.0,29.89,SSW,211,0.0,0.0,93,0.00,,,0.31,,2013-07-21 04:53:00,
2013-07-21 01:02:00,68.0,66.0,29.89,SSW,211,0.0,0.0,93,0.00,,,0.31,,2013-07-21 05:02:00,
2013-07-21 01:11:00,68.0,66.0,29.89,SSW,211,0.0,0.0,93,0.00,,,0.31,,2013-07-21 05:11:00,
2013-07-21 01:22:00,68.0,66.0,29.89,SSW,211,0.0,0.0,93,0.00,,,0.31,,2013-07-21 05:22:00,
2013-07-21 01:32:00,68.0,66.0,29.88,SSW,211,0.0,0.0,93,0.00,,,0.31,,2013-07-21 05:32:00,
2013-07-21 01:42:00,68.0,66.0,29.88,SSW,211,0.0,0.0,93,0.00,,,0.31,,2013-07-21 05:42:00,
2013-07-21 01:52:00,68.0,66.0,29.88,SSW,211,0.0,0.0,94,0.00,,,0.31,,2013-07-21 05:52:00,
2013-07-21 02:01:00,68.0,66.0,29.88,SSW,211,0.0,0.0,94,0.00,,,0.31,,2013-07-21 06:01:00,
2013-07-21 02:11:00,68.0,66.0,29.88,SSW,211,0.0,0.0,94,0.00,,,0.31,,2013-07-21 06:11:00,
2013-07-21 02:22:00,68.0,66.0,29.87,SSW,211,0.0,0.0,94,0.00,,,0.31,,2013-07-21 06:22:00,
2013-07-21 02:32:00,68.0,66.0,29.88,SSW,211,0.0,0.0,94,0.00,,,0.31,,2013-07-21 06:32:00,
2013-07-21 02:43:00,68.0,66.0,29.88,SSW,211,0.0,0.0,94,0.00,,,0.31,,2013-07-21 06:43:00,
2013-07-21 02:53:00,68.0,66.0,29.88,SSW,211,0.0,0.0,94,0.00,,,0.31,,2013-07-21 06:53:00,
2013-07-21 03:01:00,68.0,66.0,29.88,SSW,211,0.0,0.0,94,0.00,,,0.31,,2013-07-21 07:01:00,
2013-07-21 03:22:00,68.0,66.0,29.87,SSW,211,0.0,0.0,94,0.00,,,0.31,,2013-07-21 07:22:00,
2013-07-21 03:43:00,68.0,66.0,29.87,SSW,211,0.0,0.0,94,0.00,,,0.31,,2013-07-21 07:43:00,
2013-07-21 03:53:00,68.0,67.0,29.87,SSW,211,0.0,0.0,95,0.00,,,0.31,,2013-07-21 07:53:00,
2013-07-21 04:02:00,67.0,66.0,29.87,SSW,211,0.0,0.0,95,0.00,,,0.31,,2013-07-21 08:02:00,
2013-07-21 04:11:00,67.0,66.0,29.87,SSW,211,0.0,0.0,95,0.00,,,0.31,,2013-07-21 08:11:00,
2013-07-21 04:22:00,67.0,66.0,29.87,SSW,211,0.0,0.0,95,0.00,,,0.31,,2013-07-21 08:22:00,
2013-07-21 04:33:00,67.0,66.0,29.87,SSW,211,0.0,0.0,95,0.00,,,0.31,,2013-07-21 08:33:00,
2013-07-21 04:43:00,67.0,66.0,29.87,SSW,211,0.0,0.0,95,0.00,,,0.31,,2013-07-21 08:43:00,
2013-07-21 04:52:00,67.0,66.0,29.86,SSW,211,0.0,1.0,95,0.00,,,0.31,,2013-07-21 08:52:00,
2013-07-21 05:02:00,67.0,66.0,29.87,SSW,211,0.0,2.0,95,0.00,,,0.31,,2013-07-21 09:02:00,
2013-07-21 05:12:00,67.0,66.0,29.87,SSW,211,0.0,2.0,95,0.00,,,0.31,,2013-07-21 09:12:00,
2013-07-21 11:53:00,76.0,68.0,29.92,North,355,2.0,8.0,76,0.00,,,0.00,,2013-07-21 15:53:00,
2013-07-21 13:53:00,79.0,68.0,29.89,West,277,2.0,10.0,70,0.00,,,0.00,,2013-07-21 17:53:00,
2013-07-21 14:01:00,79.0,69.0,29.88,WNW,288,0.0,6.0,71,0.00,,,0.00,,2013-07-21 18:01:00,
2013-07-21 14:11:00,79.0,69.0,29.88,WNW,288,0.0,6.0,71,0.00,,,0.00,,2013-07-21 18:11:00,
2013-07-21 14:22:00,78.0,68.0,29.88,West,267,1.0,3.0,71,0.00,,,0.00,,2013-07-21 18:22:00,
2013-07-21 14:32:00,78.0,68.0,29.87,West,273,3.0,7.0,71,0.00,,,0.00,,2013-07-21 18:32:00,
2013-07-21 14:52:00,79.0,68.0,29.87,WSW,239,0.0,7.0,69,0.00,,,0.00,,2013-07-21 18:52:00,
2013-07-21 15:01:00,80.0,68.0,29.85,West,273,1.0,10.0,68,0.00,,,0.00,,2013-07-21 19:01:00,
2013-07-21 15:11:00,80.0,68.0,29.85,West,273,1.0,10.0,68,0.00,,,0.00,,2013-07-21 19:11:00,
2013-07-21 15:22:00,80.0,65.0,29.85,WNW,295,5.0,12.0,61,0.00,,,0.00,,2013-07-21 19:22:00,
2013-07-21 15:32:00,81.0,66.0,29.84,NW,305,2.0,12.0,60,0.00,,,0.00,,2013-07-21 19:32:00,
2013-07-21 15:42:00,81.0,66.0,29.84,NW,305,2.0,12.0,60,0.00,,,0.00,,2013-07-21 19:42:00,
2013-07-21 15:52:00,82.0,66.0,29.84,West,267,0.0,9.0,58,0.00,,,0.00,,2013-07-21 19:52:00,
2013-07-21 16:02:00,80.0,67.0,29.84,WNW,294,3.0,15.0,65,0.00,,,0.00,,2013-07-21 20:02:00,
2013-07-21 16:12:00,80.0,67.0,29.84,WNW,294,3.0,15.0,65,0.00,,,0.00,,2013-07-21 20:12:00,
2013-07-21 16:22:00,78.0,69.0,29.85,West,281,1.0,14.0,75,0.00,,,0.00,,2013-07-21 20:22:00,
2013-07-21 16:32:00,76.0,68.0,29.85,West,281,2.0,15.0,76,0.00,,,0.00,,2013-07-21 20:32:00,
2013-07-21 16:43:00,76.0,68.0,29.85,West,281,2.0,15.0,76,0.00,,,0.00,,2013-07-21 20:43:00,
2013-07-21 16:52:00,75.0,67.0,29.87,WSW,258,3.0,13.0,76,0.00,,,0.00,,2013-07-21 20:52:00,
2013-07-21 17:01:00,74.0,66.0,29.88,West,275,1.0,8.0,77,0.00,,,0.00,,2013-07-21 21:01:00,
2013-07-21 17:11:00,74.0,66.0,29.88,West,275,1.0,8.0,77,0.00,,,0.00,,2013-07-21 21:11:00,
2013-07-21 17:22:00,74.0,67.0,29.87,WNW,294,0.0,5.0,79,0.00,,,0.00,,2013-07-21 21:22:00,
2013-07-21 17:32:00,74.0,67.0,29.87,North,355,0.0,6.0,80,0.00,,,0.00,,2013-07-21 21:32:00,
2013-07-21 17:43:00,74.0,67.0,29.87,North,355,0.0,6.0,80,0.00,,,0.00,,2013-07-21 21:43:00,
2013-07-21 17:52:00,75.0,67.0,29.87,North,355,0.0,2.0,77,0.00,,,0.00,,2013-07-21 21:52:00,
2013-07-21 18:01:00,75.0,67.0,29.86,North,355,0.0,1.0,76,0.00,,,0.00,,2013-07-21 22:01:00,
2013-07-21 18:11:00,75.0,67.0,29.86,North,355,0.0,1.0,76,0.00,,,0.00,,2013-07-21 22:11:00,
2013-07-21 18:22:00,75.0,67.0,29.86,North,355,0.0,2.0,76,0.00,,,0.00,,2013-07-21 22:22:00,
2013-07-21 18:32:00,74.0,66.0,29.85,NW,318,0.0,3.0,76,0.00,,,0.00,,2013-07-21 22:32:00,
2013-07-21 18:43:00,74.0,66.0,29.85,NW,318,0.0,3.0,76,0.00,,,0.00,,2013-07-21 22:43:00,
2013-07-21 18:52:00,74.0,66.0,29.85,NW,317,0.0,2.0,76,0.00,,,0.00,,2013-07-21 22:52:00,
2013-07-21 19:02:00,74.0,66.0,29.85,NW,317,0.0,2.0,76,0.00,,,0.00,,2013-07-21 23:02:00,
2013-07-21 19:11:00,74.0,66.0,29.85,NW,317,0.0,2.0,76,0.00,,,0.00,,2013-07-21 23:11:00,
2013-07-21 19:22:00,74.0,64.0,29.85,NW,317,0.0,0.0,72,0.00,,,0.00,,2013-07-21 23:22:00,
2013-07-21 19:32:00,75.0,67.0,29.85,NW,317,0.0,0.0,75,0.00,,,0.00,,2013-07-21 23:32:00,
2013-07-21 19:43:00,75.0,67.0,29.85,NW,317,0.0,0.0,75,0.00,,,0.00,,2013-07-21 23:43:00,
2013-07-21 19:53:00,74.0,67.0,29.85,NW,317,0.0,0.0,78,0.00,,,0.00,,2013-07-21 23:53:00,
2013-07-21 20:01:00,74.0,67.0,29.85,NW,317,0.0,0.0,79,0.00,,,0.00,,2013-07-22 00:01:00,
2013-07-21 20:11:00,74.0,67.0,29.85,NW,317,0.0,0.0,79,0.00,,,0.00,,2013-07-22 00:11:00,
2013-07-21 20:22:00,73.0,66.0,29.86,NW,317,0.0,0.0,80,0.00,,,0.00,,2013-07-22 00:22:00,
2013-07-21 20:32:00,73.0,67.0,29.86,NW,317,0.0,0.0,81,0.00,,,0.00,,2013-07-22 00:32:00,
2013-07-21 20:42:00,73.0,67.0,29.86,NW,317,0.0,0.0,81,0.00,,,0.00,,2013-07-22 00:42:00,
2013-07-21 20:53:00,72.0,67.0,29.86,NW,317,0.0,0.0,83,0.00,,,0.00,,2013-07-22 00:53:00,
2013-07-21 21:02:00,71.0,66.0,29.86,NW,317,0.0,0.0,85,0.00,,,0.00,,2013-07-22 01:02:00,
2013-07-21 21:12:00,71.0,66.0,29.86,NW,317,0.0,0.0,85,0.00,,,0.00,,2013-07-22 01:12:00,
2013-07-21 21:22:00,70.0,66.0,29.86,NW,317,0.0,0.0,86,0.00,,,0.00,,2013-07-22 01:22:00,
2013-07-21 21:32:00,70.0,66.0,29.86,NW,317,0.0,0.0,87,0.00,,,0.00,,2013-07-22 01:32:00,
2013-07-21 21:42:00,70.0,66.0,29.86,NW,317,0.0,0.0,87,0.00,,,0.00,,2013-07-22 01:42:00,
2013-07-21 21:52:00,70.0,66.0,29.87,NW,317,0.0,0.0,88,0.00,,,0.00,,2013-07-22 01:52:00,
2013-07-21 22:02:00,69.0,66.0,29.88,NW,317,0.0,0.0,89,0.00,,,0.00,,2013-07-22 02:02:00,
2013-07-21 22:11:00,69.0,66.0,29.88,NW,317,0.0,0.0,89,0.00,,,0.00,,2013-07-22 02:11:00,
2013-07-21 22:22:00,69.0,66.0,29.88,NW,317,0.0,0.0,89,0.00,,,0.00,,2013-07-22 02:22:00,
2013-07-21 22:32:00,69.0,66.0,29.88,NW,317,0.0,0.0,90,0.00,,,0.00,,2013-07-22 02:32:00,
2013-07-21 22:43:00,69.0,66.0,29.88,NW,317,0.0,0.0,90,0.00,,,0.00,,2013-07-22 02:43:00,
2013-07-21 22:52:00,68.0,65.0,29.88,NW,317,0.0,0.0,90,0.00,,,0.00,,2013-07-22 02:52:00,
2013-07-21 23:01:00,68.0,65.0,29.89,NW,317,0.0,0.0,90,0.00,,,0.00,,2013-07-22 03:01:00,
2013-07-21 23:12:00,68.0,65.0,29.89,NW,317,0.0,0.0,90,0.00,,,0.00,,2013-07-22 03:12:00,
2013-07-21 23:22:00,68.0,65.0,29.89,NW,317,0.0,0.0,91,0.00,,,0.00,,2013-07-22 03:22:00,
2013-07-21 23:33:00,68.0,65.0,29.89,NW,317,0.0,0.0,91,0.00,,,0.00,,2013-07-22 03:33:00,
2013-07-21 23:43:00,68.0,65.0,29.88,NW,317,0.0,0.0,91,0.00,,,0.00,,2013-07-22 03:43:00,
2013-07-21 23:53:00,67.0,64.0,29.88,NW,317,0.0,0.0,91,0.00,,,0.00,,2013-07-22 03:53:00,